| time (UTC) | temp F | wind direction | speed MPH | gust MPH | rain 1hr in | rain 24hr in | rain mn in | humidity % | barometer mb |
| 20260904040019 | 59 | 90 | 1.0 | 2.0 | 0.00 | 0.06 | 0.04 | 82 | 1009.8 |
| 20260904035045 | 59 | 68 | 0.0 | 2.0 | 0.00 | 0.16 | 0.04 | 81 | 1009.8 |
| 20260904034018 | 60 | 68 | 1.0 | 3.0 | 0.00 | 0.16 | 0.04 | 81 | 1009.7 |
| 20260904033018 | 60 | 113 | 3.0 | 5.0 | 0.00 | 0.16 | 0.04 | 80 | 1009.6 |
| 20260904032058 | 61 | 113 | 1.0 | 3.0 | 0.00 | 0.16 | 0.04 | 80 | 1009.6 |
| 20260904031020 | 61 | 0 | 0.0 | 2.0 | 0.00 | 0.16 | 0.04 | 76 | 1009.5 |
| 20260904030020 | 61 | 23 | 1.0 | 2.0 | 0.00 | 0.16 | 0.04 | 75 | 1009.5 |
| 20260904025100 | 61 | 23 | 3.0 | 7.0 | 0.00 | 0.29 | 0.04 | 75 | 1009.4 |
| 20260904024035 | 62 | 0 | 5.0 | 8.0 | 0.00 | 0.29 | 0.04 | 75 | 1009.4 |
| 20260904023019 | 62 | 23 | 4.0 | 7.0 | 0.00 | 0.29 | 0.04 | 74 | 1009.5 |
| 20260904022019 | 62 | 0 | 4.0 | 9.0 | 0.00 | 0.29 | 0.04 | 74 | 1009.5 |
| 20260904021020 | 63 | 315 | 3.0 | 5.0 | 0.00 | 0.29 | 0.04 | 75 | 1009.4 |
| 20260904020020 | 63 | 23 | 2.0 | 4.0 | 0.00 | 0.29 | 0.04 | 72 | 1009.4 |
| 20260904015020 | 64 | 0 | 1.0 | 4.0 | 0.00 | 0.31 | 0.04 | 73 | 1009.3 |
| 20260904014019 | 64 | 23 | 4.0 | 8.0 | 0.00 | 0.31 | 0.04 | 70 | 1009.3 |
| 20260904013019 | 64 | 45 | 2.0 | 5.0 | 0.00 | 0.31 | 0.04 | 69 | 1009.3 |
| 20260904012019 | 64 | 23 | 2.0 | 6.0 | 0.00 | 0.31 | 0.04 | 69 | 1009.3 |
| 20260904011019 | 64 | 68 | 3.0 | 6.0 | 0.00 | 0.31 | 0.04 | 69 | 1009.1 |
| 20260904010019 | 65 | 0 | 4.0 | 10.0 | 0.00 | 0.31 | 0.04 | 69 | 1009.0 |
| 20260904005020 | 65 | 0 | 3.0 | 6.0 | 0.00 | 0.41 | 0.04 | 70 | 1009.0 |
| 20260904004020 | 65 | 23 | 4.0 | 7.0 | 0.00 | 0.41 | 0.04 | 70 | 1009.0 |
| 20260904003019 | 65 | 23 | 3.0 | 8.0 | 0.00 | 0.41 | 0.04 | 71 | 1009.1 |
| 20260904002020 | 65 | 23 | 3.0 | 8.0 | 0.00 | 0.41 | 0.04 | 71 | 1009.1 |
| 20260904001019 | 64 | 45 | 3.0 | 7.0 | 0.00 | 0.41 | 0.04 | 73 | 1009.1 |
| 20260904000019 | 64 | 23 | 5.0 | 9.0 | 0.00 | 0.41 | 0.04 | 73 | 1009.1 |
| 20260903235019 | 64 | 0 | 6.0 | 10.0 | 0.00 | 0.50 | 0.04 | 74 | 1009.1 |
| 20260903234020 | 64 | 23 | 3.0 | 7.0 | 0.00 | 0.50 | 0.04 | 75 | 1009.1 |
| 20260903233028 | 64 | 0 | 4.0 | 8.0 | 0.00 | 0.50 | 0.04 | 73 | 1009.2 |
| 20260903232059 | 64 | 0 | 6.0 | 10.0 | 0.00 | 0.50 | 0.04 | 73 | 1009.2 |
| 20260903231019 | 64 | 0 | 6.0 | 9.0 | 0.00 | 0.50 | 0.04 | 73 | 1009.3 |
| 20260903230019 | 64 | 0 | 5.0 | 8.0 | 0.00 | 0.50 | 0.04 | 74 | 1009.3 |
| 20260903225019 | 64 | 23 | 4.0 | 9.0 | 0.00 | 0.54 | 0.04 | 74 | 1009.2 |
| 20260903224019 | 64 | 23 | 3.0 | 7.0 | 0.00 | 0.54 | 0.04 | 74 | 1009.2 |
| 20260903223020 | 65 | 0 | 5.0 | 8.0 | 0.00 | 0.54 | 0.04 | 74 | 1009.2 |
| 20260903222019 | 65 | 23 | 6.0 | 11.0 | 0.00 | 0.54 | 0.04 | 71 | 1009.2 |
| 20260903221019 | 66 | 0 | 7.0 | 10.0 | 0.00 | 0.54 | 0.04 | 71 | 1009.2 |
| 20260903220059 | 66 | 0 | 9.0 | 15.0 | 0.00 | 0.54 | 0.04 | 73 | 1009.2 |
| 20260903215019 | 66 | 0 | 7.0 | 14.0 | 0.00 | 0.59 | 0.04 | 71 | 1009.2 |
| 20260903214039 | 65 | 45 | 6.0 | 10.0 | 0.00 | 0.59 | 0.04 | 77 | 1009.2 |
| 20260903213019 | 64 | 0 | 4.0 | 8.0 | 0.00 | 0.59 | 0.04 | 77 | 1009.1 |
| 20260903212019 | 64 | 23 | 4.0 | 8.0 | 0.00 | 0.59 | 0.04 | 79 | 1009.0 |
| 20260903211019 | 64 | 23 | 7.0 | 13.0 | 0.00 | 0.59 | 0.04 | 78 | 1009.1 |
| 20260903210020 | 64 | 23 | 6.0 | 12.0 | 0.00 | 0.59 | 0.04 | 79 | 1009.0 |
| 20260903205034 | 63 | 23 | 7.0 | 13.0 | 0.00 | 0.62 | 0.04 | 80 | 1009.0 |
| 20260903204032 | 62 | 23 | 6.0 | 9.0 | 0.00 | 0.62 | 0.04 | 82 | 1008.8 |
| 20260903203019 | 62 | 0 | 5.0 | 9.0 | 0.00 | 0.62 | 0.04 | 83 | 1008.9 |
| 20260903202019 | 62 | 0 | 5.0 | 10.0 | 0.00 | 0.62 | 0.04 | 82 | 1008.9 |
| 20260903201019 | 62 | 0 | 4.0 | 11.0 | 0.00 | 0.62 | 0.04 | 84 | 1008.9 |
| 20260903200059 | 61 | 0 | 5.0 | 8.0 | 0.00 | 0.62 | 0.04 | 85 | 1008.8 |
| 20260903195019 | 61 | 0 | 4.0 | 8.0 | 0.00 | 0.65 | 0.04 | 88 | 1008.8 |
| 20260903194018 | 61 | 338 | 5.0 | 11.0 | 0.00 | 0.65 | 0.04 | 89 | 1008.8 |
| 20260903193019 | 60 | 0 | 6.0 | 11.0 | 0.00 | 0.65 | 0.04 | 88 | 1008.8 |
| 20260903192018 | 61 | 0 | 6.0 | 11.0 | 0.00 | 0.65 | 0.04 | 87 | 1008.7 |
| 20260903191052 | 61 | 338 | 6.0 | 12.0 | 0.00 | 0.65 | 0.04 | 88 | 1008.7 |
| 20260903190019 | 61 | 315 | 3.0 | 8.0 | 0.00 | 0.65 | 0.04 | 90 | 1008.6 |
| 20260903185059 | 60 | 315 | 4.0 | 9.0 | 0.00 | 0.65 | 0.04 | 89 | 1008.6 |
| 20260903184019 | 60 | 0 | 4.0 | 6.0 | 0.00 | 0.65 | 0.04 | 91 | 1008.4 |
| 20260903183019 | 60 | 0 | 3.0 | 5.0 | 0.00 | 0.65 | 0.04 | 91 | 1008.3 |
| 20260903182019 | 59 | 0 | 4.0 | 9.0 | 0.00 | 0.65 | 0.04 | 91 | 1008.3 |
| 20260903181059 | 59 | 315 | 5.0 | 9.0 | 0.00 | 0.65 | 0.04 | 92 | 1008.1 |
| 20260903180018 | 59 | 0 | 5.0 | 8.0 | 0.00 | 0.65 | 0.04 | 94 | 1007.9 |
| 20260903175021 | 59 | 315 | 5.0 | 9.0 | 0.00 | 0.65 | 0.04 | 97 | 1007.9 |
| 20260903174059 | 59 | 315 | 4.0 | 7.0 | 0.00 | 0.65 | 0.04 | 97 | 1007.8 |
| 20260903173019 | 58 | 293 | 4.0 | 7.0 | 0.00 | 0.65 | 0.04 | 98 | 1007.7 |
| 20260903172040 | 58 | 293 | 4.0 | 8.0 | 0.00 | 0.65 | 0.04 | 98 | 1007.7 |
| 20260903171019 | 58 | 315 | 2.0 | 6.0 | 0.00 | 0.65 | 0.04 | 98 | 1007.6 |
| 20260903170019 | 58 | 315 | 3.0 | 5.0 | 0.00 | 0.65 | 0.04 | 98 | 1007.4 |
| 20260903165018 | 58 | 270 | 1.0 | 3.0 | 0.00 | 0.65 | 0.04 | 98 | 1007.3 |
| 20260903164018 | 58 | 225 | 2.0 | 4.0 | 0.00 | 0.65 | 0.04 | 98 | 1007.2 |
| 20260903163019 | 58 | 225 | 2.0 | 3.0 | 0.00 | 0.65 | 0.04 | 98 | 1007.2 |
| 20260903162018 | 58 | 293 | 1.0 | 2.0 | 0.00 | 0.65 | 0.04 | 99 | 1007.2 |
| 20260903161018 | 57 | 225 | 0.0 | 2.0 | 0.00 | 0.65 | 0.04 | 99 | 1007.2 |
| 20260903160019 | 57 | 315 | 0.0 | 1.0 | 0.00 | 0.65 | 0.04 | 98 | 1007.0 |
| 20260903155018 | 57 | 315 | 1.0 | 2.0 | 0.00 | 0.66 | 0.04 | 99 | 1007.0 |
| 20260903154059 | 57 | 315 | 2.0 | 4.0 | 0.00 | 0.66 | 0.04 | 99 | 1006.8 |
| 20260903153027 | 56 | 0 | 2.0 | 4.0 | 0.01 | 0.66 | 0.04 | 99 | 1006.7 |
| 20260903152018 | 56 | 315 | 2.0 | 3.0 | 0.01 | 0.66 | 0.04 | 98 | 1006.7 |
| 20260903151058 | 55 | 203 | 0.0 | 1.0 | 0.01 | 0.66 | 0.04 | 98 | 1006.7 |
| 20260903150018 | 55 | 203 | 1.0 | 2.0 | 0.01 | 0.66 | 0.04 | 98 | 1006.5 |
| 20260903145019 | 55 | 68 | 0.0 | 1.0 | 0.01 | 0.69 | 0.04 | 98 | 1006.5 |
| 20260903144019 | 54 | 78 | 0.0 | 0.0 | 0.01 | 0.69 | 0.04 | 98 | 1006.2 |
| 20260903143058 | 54 | 68 | 0.0 | 1.0 | 0.00 | 0.68 | 0.03 | 98 | 1006.2 |
| 20260903142018 | 54 | 158 | 0.0 | 2.0 | 0.00 | 0.68 | 0.03 | 98 | 1006.2 |
| 20260903141018 | 54 | 153 | 0.0 | 0.0 | 0.00 | 0.68 | 0.03 | 98 | 1006.1 |
| 20260903140018 | 54 | 153 | 0.0 | 0.0 | 0.00 | 0.68 | 0.03 | 98 | 1006.0 |
| 20260903135019 | 54 | 158 | 1.0 | 2.0 | 0.00 | 0.70 | 0.03 | 98 | 1005.9 |
| 20260903134018 | 54 | 90 | 0.0 | 1.0 | 0.00 | 0.70 | 0.03 | 98 | 1005.7 |
| 20260903133018 | 54 | 135 | 0.0 | 2.0 | 0.00 | 0.70 | 0.03 | 98 | 1005.7 |
| 20260903132018 | 54 | 113 | 2.0 | 3.0 | 0.00 | 0.70 | 0.03 | 98 | 1005.7 |
| 20260903131018 | 54 | 0 | 2.0 | 3.0 | 0.00 | 0.70 | 0.03 | 98 | 1005.6 |
| 20260903130058 | 55 | 338 | 1.0 | 3.0 | 0.00 | 0.70 | 0.03 | 98 | 1005.5 |
| 20260903125018 | 55 | 0 | 2.0 | 3.0 | 0.00 | 0.76 | 0.03 | 98 | 1005.5 |
| 20260903124018 | 54 | 23 | 2.0 | 3.0 | 0.00 | 0.76 | 0.03 | 98 | 1005.2 |
| 20260903123018 | 54 | 25 | 0.0 | 0.0 | 0.00 | 0.76 | 0.03 | 98 | 1005.2 |
| 20260903122017 | 54 | 25 | 0.0 | 0.0 | 0.00 | 0.76 | 0.03 | 98 | 1005.2 |
| 20260903121059 | 54 | 25 | 0.0 | 0.0 | 0.00 | 0.76 | 0.03 | 98 | 1005.2 |
| 20260903120058 | 54 | 25 | 0.0 | 0.0 | 0.00 | 0.76 | 0.03 | 98 | 1005.1 |
| 20260903115018 | 54 | 23 | 0.0 | 1.0 | 0.00 | 0.86 | 0.03 | 98 | 1005.1 |
| 20260903114018 | 55 | 25 | 0.0 | 0.0 | 0.00 | 0.86 | 0.03 | 98 | 1004.9 |
| 20260903113018 | 55 | 23 | 1.0 | 2.0 | 0.00 | 0.86 | 0.03 | 98 | 1004.8 |
| 20260903112018 | 55 | 23 | 2.0 | 3.0 | 0.00 | 0.86 | 0.03 | 98 | 1004.7 |
| 20260903111017 | 55 | 23 | 0.0 | 3.0 | 0.00 | 0.86 | 0.03 | 98 | 1004.7 |
| 20260903110018 | 55 | 158 | 1.0 | 3.0 | 0.00 | 0.86 | 0.03 | 98 | 1004.6 |
| 20260903105100 | 55 | 135 | 0.0 | 1.0 | 0.01 | 0.87 | 0.03 | 98 | 1004.5 |
| 20260903104018 | 55 | 135 | 0.0 | 1.0 | 0.01 | 0.87 | 0.03 | 98 | 1004.4 |
| 20260903103017 | 55 | 136 | 0.0 | 0.0 | 0.01 | 0.87 | 0.03 | 97 | 1004.3 |
| 20260903102020 | 55 | 135 | 0.0 | 2.0 | 0.01 | 0.87 | 0.03 | 97 | 1004.3 |
| 20260903101020 | 55 | 135 | 0.0 | 1.0 | 0.01 | 0.87 | 0.03 | 97 | 1004.3 |
| 20260903100044 | 54 | 135 | 3.0 | 4.0 | 0.01 | 0.87 | 0.03 | 97 | 1004.2 |
| 20260903095020 | 54 | 68 | 1.0 | 2.0 | 0.00 | 0.89 | 0.02 | 97 | 1004.2 |
| 20260903094022 | 54 | 113 | 1.0 | 2.0 | 0.00 | 0.89 | 0.02 | 97 | 1004.1 |
| 20260903093059 | 54 | 113 | 1.0 | 2.0 | 0.00 | 0.89 | 0.02 | 97 | 1004.0 |
| 20260903092018 | 54 | 90 | 1.0 | 3.0 | 0.00 | 0.89 | 0.02 | 97 | 1004.0 |
| 20260903091039 | 54 | 90 | 1.0 | 2.0 | 0.00 | 0.89 | 0.02 | 97 | 1003.9 |
| 20260903090020 | 54 | 135 | 1.0 | 2.0 | 0.00 | 0.89 | 0.02 | 97 | 1003.9 |
| 20260903085020 | 54 | 135 | 1.0 | 2.0 | 0.00 | 1.02 | 0.02 | 97 | 1003.9 |
| 20260903084020 | 54 | 68 | 1.0 | 3.0 | 0.00 | 1.02 | 0.02 | 97 | 1003.8 |
| 20260903083023 | 54 | 180 | 2.0 | 5.0 | 0.01 | 1.02 | 0.02 | 97 | 1003.7 |
| 20260903082020 | 54 | 113 | 2.0 | 3.0 | 0.02 | 1.02 | 0.02 | 97 | 1003.7 |
| 20260903081019 | 54 | 113 | 1.0 | 2.0 | 0.02 | 1.02 | 0.02 | 97 | 1003.6 |
| 20260903080059 | 54 | 45 | 2.0 | 4.0 | 0.02 | 1.02 | 0.02 | 97 | 1003.6 |
| 20260903075019 | 54 | 45 | 1.0 | 3.0 | 0.02 | 1.08 | 0.02 | 97 | 1003.6 |
| 20260903074019 | 54 | 90 | 2.0 | 3.0 | 0.02 | 1.08 | 0.02 | 97 | 1003.5 |
| 20260903073019 | 54 | 90 | 2.0 | 3.0 | 0.01 | 1.07 | 0.01 | 97 | 1003.4 |
| 20260903072020 | 54 | 68 | 1.0 | 2.0 | 0.00 | 1.06 | 0.00 | 97 | 1003.3 |
| 20260903071020 | 54 | 23 | 2.0 | 3.0 | 0.00 | 1.06 | 0.00 | 96 | 1003.0 |
| 20260903070100 | 54 | 68 | 2.0 | 4.0 | 0.00 | 1.07 | 1.06 | 96 | 1003.0 |
| 20260903065019 | 54 | 0 | 2.0 | 3.0 | 0.00 | 1.07 | 1.06 | 97 | 1003.0 |
| 20260903064019 | 54 | 23 | 1.0 | 2.0 | 0.00 | 1.07 | 1.06 | 96 | 1002.9 |
| 20260903063058 | 54 | 68 | 2.0 | 5.0 | 0.00 | 1.07 | 1.06 | 96 | 1002.7 |
| 20260903062019 | 54 | 68 | 3.0 | 6.0 | 0.00 | 1.07 | 1.06 | 96 | 1002.7 |
| 20260903061021 | 54 | 68 | 2.0 | 3.0 | 0.00 | 1.07 | 1.06 | 96 | 1002.6 |
| 20260903060058 | 54 | 68 | 3.0 | 6.0 | 0.00 | 1.07 | 1.06 | 96 | 1002.5 |
| 20260903055018 | 55 | 68 | 3.0 | 5.0 | 0.01 | 1.07 | 1.06 | 96 | 1002.5 |
| 20260903054019 | 55 | 90 | 4.0 | 7.0 | 0.01 | 1.07 | 1.06 | 96 | 1002.5 |
| 20260903053018 | 55 | 45 | 1.0 | 2.0 | 0.01 | 1.07 | 1.06 | 95 | 1002.3 |
| 20260903052058 | 55 | 23 | 2.0 | 3.0 | 0.01 | 1.07 | 1.06 | 95 | 1002.2 |
| 20260903051018 | 55 | 90 | 0.0 | 2.0 | 0.02 | 1.07 | 1.06 | 95 | 1002.1 |
| 20260903050018 | 55 | 113 | 2.0 | 4.0 | 0.02 | 1.07 | 1.06 | 94 | 1002.1 |
| 20260903045018 | 56 | 135 | 1.0 | 2.0 | 0.02 | 1.06 | 1.05 | 95 | 1002.1 |
| 20260903044018 | 56 | 135 | 3.0 | 7.0 | 0.03 | 1.06 | 1.05 | 95 | 1002.0 |
| 20260903043018 | 56 | 113 | 5.0 | 9.0 | 0.05 | 1.06 | 1.05 | 95 | 1002.0 |
| 20260903042019 | 57 | 135 | 8.0 | 15.0 | 0.07 | 1.06 | 1.05 | 96 | 1001.9 |
| 20260903041019 | 58 | 135 | 5.0 | 7.0 | 0.07 | 1.05 | 1.04 | 97 | 1001.5 |